Tracking 30995 objects as of 7-Jul-2025
HD Live streaming from Space Station
objects crossing your sky now

EUTELSAT 1-F2 (ECS 2)

Track EUTELSAT 1-F2 (ECS 2) now!
EUTELSAT 1-F2 (ECS 2) is classified as:


NORAD ID: 15158
Int'l Code: 1984-081A
Perigee: 36,164.4 km
Apogee: 36,259.3 km
Inclination: 12.9 °
Period: 1,457.5 minutes
Semi major axis: 42582 km
RCS: 5.0119 m2 (large)
Launch date: August 4, 1984
Source: European Telecommunications Satellite Organization (EUTE)
Launch site: FRENCH GUIANA (FRGUI)
Your satellite tracking list
Your tracking list is empty




NASA's NSSDC Master Catalog

Two Line Element Set (TLE):
1 15158U 84081A   25187.30517267 -.00000241  00000-0  00000-0 0  9993
2 15158  12.8884 335.2468 0011147 207.8615 345.4554  0.98798564113840
Source of the keplerian elements: AFSPC